Location: Unspecified
(0.0000°N, 0.0000°E)
Time: 09:59:38
(UTC+00:00)

Transit 4B - Pass Details

Date: 21 August 2024
Orbit: 947 x 1097 km, 32.4° (Epoch: 07 September)

Event Time Altitude Azimuth Distance (km) Brightness Sun altitude
Rises 05:34:45 0° 206° (SSW) 3,775 11.2 -6.9°
Reaches altitude 10° 05:38:44 10° 185° (S) 2,854 10.8 -6.0°
Maximum altitude 05:42:39 15° 150° (SSE) 2,495 10.9 -5.0°
Drops below altitude 10° 05:46:36 10° 116° (ESE) 2,905 11.9 -4.0°
Sets 05:50:42 0° 95° (E) 3,880 13.5 -3.0°
